Probability
0 1 2 3 3 1 0 0 0 0 0 0 1 1 2 2 1 1 5 12 16 14 10 9 8 5 3 1 0 0 0 0 0 0 0 0 0 1 2 3 3 3 3 2 1 1 3 3 2
0 1 3 3 1 0 0 0 0 0 0 0 1 1 1 1 0 2 6 11 14 13 11 9 7 5 4 2 1 1 0 0 0 0 0 0 0 1 2 3 3 3 4 3 2 2 3 3 2
1 2 3 1 0 0 0 0 0 0 0 0 0 0 0 0 1 4 7 11 12 12 12 10 7 6 4 3 3 2 1 1 0 0 0 0 0 1 2 3 3 4 5 5 3 2 2 2 2
3 3 2 1 0 0 0 0 0 0 0 0 0 0 0 1 3 5 7 10 11 12 12 11 9 7 5 4 4 4 3 3 1 0 0 0 0 1 2 3 4 5 6 6 5 3 2 2 2
2 2 2 1 0 0 0 0 1 1 1 0 1 1 1 2 4 6 7 8 11 13 14 13 12 11 8 6 6 6 6 5 4 2 1 1 1 1 2 4 5 6 6 6 5 3 2 2 3
1 1 1 0 1 1 1 0 1 2 1 1 1 2 2 3 5 6 6 7 10 14 15 15 15 14 12 9 7 6 7 7 8 6 4 4 3 2 2 4 6 6 5 4 3 2 2 3 3
0 0 0 0 1 2 1 0 1 2 2 1 1 3 6 7 6 6 7 8 11 13 14 15 16 15 13 9 6 6 7 9 10 9 8 7 5 3 3 4 5 5 4 3 3 2 2 2 3
0 0 0 0 1 2 1 1 1 2 3 2 2 4 9 11 9 8 10 10 10 10 11 13 15 15 13 9 7 7 9 10 10 10 10 9 7 4 3 5 6 6 4 3 3 3 2 2 3
0 0 0 0 0 1 1 1 2 3 3 4 5 8 11 11 9 11 13 10 8 9 10 12 13 14 13 10 9 10 11 10 10 10 10 9 7 5 4 6 9 8 5 4 4 3 3 3 3
0 0 0 0 0 1 2 2 2 2 3 6 11 12 10 8 8 11 12 10 8 8 10 11 12 13 12 12 13 13 14 13 11 9 9 8 6 5 5 9 13 11 7 5 5 4 3 3 3
0 0 0 0 0 1 1 2 2 2 3 8 16 15 10 8 9 10 11 10 9 9 10 10 12 14 15 15 16 17 17 16 13 10 9 8 6 3 4 9 14 12 8 6 6 5 3 2 2
0 0 0 0 0 0 1 1 2 2 4 10 15 14 9 8 9 9 11 11 12 11 10 10 13 17 21 22 21 20 19 17 16 15 11 7 4 3 4 7 10 9 7 5 6 5 3 1 2
0 0 0 0 0 1 2 2 2 3 5 9 11 10 7 6 7 10 15 17 17 17 14 13 16 22 27 28 26 22 20 18 19 18 12 6 3 3 5 6 7 6 5 6 6 4 2 1 2
0 0 0 0 0 1 2 3 3 4 5 7 7 7 7 6 9 16 23 26 26 25 24 22 23 29 32 30 28 24 20 20 20 17 12 6 4 6 9 9 8 7 7 8 7 4 2 1 1
0 0 0 0 0 1 2 3 3 4 5 5 5 6 7 9 14 23 32 36 34 34 35 33 32 36 38 33 28 24 21 20 20 17 14 11 8 10 13 12 10 9 10 10 10 8 4 2 1
0 0 0 0 1 1 1 2 4 4 5 5 5 6 9 13 19 27 38 43 41 41 43 40 36 40 41 36 31 28 25 23 21 18 18 17 13 13 14 13 11 9 10 11 12 11 7 4 4
0 0 0 1 2 2 1 2 4 5 5 5 7 8 11 15 22 31 41 47 47 47 49 45 40 42 42 39 37 36 33 27 22 21 22 21 17 13 12 12 11 10 10 10 11 11 9 7 7
0 0 0 1 2 2 2 2 4 4 4 5 7 9 12 17 26 38 46 49 50 53 54 51 48 48 45 42 40 41 36 29 24 24 24 22 17 13 11 11 11 11 10 10 10 11 10 10 9
0 0 0 0 1 1 2 2 4 4 4 5 7 10 13 21 32 44 50 50 52 56 57 56 55 55 51 46 42 40 35 28 24 22 21 20 18 15 13 13 14 13 11 11 12 13 12 11 10
0 0 0 0 0 0 1 2 4 4 4 5 7 9 15 25 36 46 49 50 53 57 58 59 60 59 55 50 44 38 33 28 24 21 20 20 19 18 16 16 17 16 14 14 15 14 11 9 9
0 0 0 0 0 0 1 2 4 5 5 5 6 8 13 24 36 44 46 49 54 57 59 61 62 60 56 51 44 38 34 29 25 23 22 21 19 17 18 18 18 19 18 16 15 14 11 9 8
0 0 0 0 0 0 0 1 3 5 6 5 5 6 11 22 35 43 44 48 53 56 58 60 62 60 56 51 46 41 37 33 28 25 24 21 18 18 19 21 21 21 20 17 13 11 11 9 8
0 0 0 0 0 0 0 0 2 4 5 5 7 7 11 23 36 43 45 47 52 55 56 58 60 59 56 52 49 44 40 35 31 28 25 21 19 19 20 22 24 23 20 15 11 10 11 10 8
0 0 0 0 0 0 0 0 1 3 5 6 8 11 16 24 36 45 49 49 52 53 53 54 56 56 54 51 49 46 41 36 33 31 26 21 19 19 19 22 25 26 20 15 13 12 11 9 8
0 0 0 0 0 0 0 1 2 3 5 7 10 15 21 27 36 45 49 50 52 51 49 50 52 53 51 50 48 44 40 37 34 29 24 20 18 19 19 20 24 25 20 16 15 14 11 10 9
0 0 0 0 0 0 0 1 2 5 7 8 11 18 26 31 36 43 47 50 51 49 47 47 49 50 50 47 44 40 37 36 32 26 21 18 17 18 18 19 22 24 21 17 16 15 12 10 10
0 0 0 0 0 0 0 0 3 6 9 10 13 19 26 32 38 43 47 48 47 46 46 46 47 48 46 43 38 34 32 30 27 23 20 17 15 14 15 17 21 23 21 19 17 15 14 13 12
0 0 0 0 0 0 0 1 5 10 11 11 14 18 24 30 37 42 46 45 42 40 41 43 44 43 40 38 34 29 26 23 22 21 19 16 14 12 12 15 18 20 21 21 18 15 14 15 15
0 0 0 0 0 0 0 2 6 12 14 13 15 21 27 32 36 39 42 41 36 32 31 34 36 36 35 35 33 29 24 21 19 19 19 17 15 13 12 13 15 16 18 19 18 15 13 13 14
0 0 0 0 0 0 1 3 8 12 15 14 17 25 33 35 36 37 40 38 32 25 23 27 30 32 33 33 32 29 26 22 20 19 19 18 17 15 14 14 13 14 16 17 17 14 11 11 12
Wind_Speed
8 11 10 7 7 5 2 4 10 9 10 11 10 10 13 14 11 9 10 14 17 15 14 14 12 11 9 8 8 8 7 7 7 7 7 7 7 7 7 7 7 7 7 7 8 8 8 9 8
10 12 10 6 5 3 2 4 8 10 9 8 9 10 13 14 13 12 11 13 16 15 13 13 13 11 9 8 8 7 7 7 7 7 7 6 6 6 6 6 7 7 7 7 7 8 8 8 7
12 15 8 6 5 3 1 4 7 9 7 7 8 11 11 10 12 10 12 14 14 14 13 13 13 11 10 8 8 7 7 6 6 6 6 6 6 6 5 5 6 6 6 7 7 7 7 7 6
9 9 7 6 5 1 3 4 6 7 6 6 8 9 11 9 10 12 13 13 13 14 14 14 14 12 10 9 8 7 6 6 6 5 5 5 5 5 5 4 4 5 6 6 6 6 6 6 5
10 7 9 7 6 0 3 4 6 6 5 6 9 11 12 12 14 14 12 12 11 13 13 14 14 12 10 9 8 7 7 6 5 5 4 4 4 4 5 5 6 6 5 5 6 6 5 5 4
8 7 8 6 5 2 2 5 5 5 5 6 8 11 10 12 13 12 11 10 11 13 13 13 14 13 11 10 9 8 7 6 5 4 3 3 3 3 4 6 6 6 5 4 5 5 4 4 3
9 9 9 9 6 1 2 3 3 3 4 5 6 9 10 10 11 11 10 10 11 13 12 11 12 12 11 10 9 8 7 6 5 4 3 3 2 2 3 4 5 4 4 4 4 4 4 3 3
10 9 12 10 5 2 4 3 3 2 4 5 4 7 11 11 11 11 10 9 10 11 11 10 10 10 9 9 9 9 8 7 6 5 4 4 3 3 4 4 4 4 4 4 4 4 4 3 3
13 9 10 10 5 2 4 3 4 4 4 4 7 10 14 14 13 12 10 8 8 8 8 9 9 8 8 9 9 9 8 8 6 5 6 5 3 3 3 4 6 5 4 4 4 4 4 4 4
10 9 11 9 5 2 1 2 3 3 3 6 11 13 16 14 13 11 11 9 8 7 7 7 7 6 5 6 7 5 5 5 4 3 3 3 2 1 2 4 7 6 5 5 5 5 4 4 3
12 12 11 8 4 3 3 3 2 3 3 4 10 13 14 14 12 10 10 9 9 8 6 6 6 4 3 4 4 3 2 3 3 3 2 2 1 1 1 2 3 4 5 4 4 4 3 2 1
13 13 12 8 4 4 5 4 4 3 2 5 10 11 11 12 11 10 9 10 9 8 6 6 6 4 3 3 2 2 2 2 2 2 1 1 0 0 0 1 1 2 2 2 2 2 2 1 1
13 13 11 7 7 7 7 6 5 4 3 5 10 13 12 11 11 9 9 9 9 8 7 7 5 5 3 2 1 2 1 1 2 2 1 0 0 0 0 0 1 1 1 2 1 1 1 1 1
11 11 11 10 9 9 9 8 8 7 6 6 8 11 11 10 11 10 9 8 8 7 7 6 6 5 4 2 1 1 1 1 1 2 2 0 0 1 0 0 0 1 1 1 1 1 1 0 1
10 12 12 12 11 10 10 11 10 8 8 8 8 9 11 11 11 10 10 8 8 8 7 6 6 6 4 3 2 2 1 2 2 2 2 1 0 0 0 0 0 0 1 1 1 1 1 1 1
11 13 13 13 14 12 12 12 9 9 10 9 8 9 10 10 11 11 11 8 7 8 7 5 5 6 5 3 2 1 1 2 2 2 2 2 1 0 0 0 0 0 0 1 1 1 1 0 1
14 14 14 13 13 11 12 11 8 9 10 10 9 9 9 10 10 11 11 10 7 7 7 6 5 6 5 4 2 1 1 2 1 1 1 2 1 0 0 0 1 1 1 1 1 1 1 1 1
12 12 12 13 10 11 12 10 8 9 10 10 10 10 10 9 9 10 11 11 9 8 8 7 6 6 5 4 3 1 2 2 1 1 1 2 1 1 0 1 1 1 1 0 0 1 1 1 1
14 14 12 10 8 9 10 10 9 9 9 9 9 9 9 9 9 8 10 11 10 8 8 7 6 6 4 3 3 2 2 2 1 2 2 2 1 1 0 0 1 1 1 1 1 0 1 1 1
16 16 14 11 7 7 9 11 10 9 9 8 8 9 9 9 11 10 9 10 9 9 9 8 7 6 5 4 3 3 2 2 2 1 3 3 1 1 1 1 1 1 1 1 1 1 1 1 1
15 14 13 12 9 9 9 12 11 10 10 9 8 8 9 10 12 12 11 10 10 9 9 8 7 7 5 5 3 3 2 1 2 2 2 2 2 1 0 1 1 1 1 1 1 1 1 1 1
13 13 13 14 12 9 11 10 10 11 11 11 10 8 8 9 11 11 11 10 10 9 9 7 7 7 5 5 4 4 3 2 2 2 2 2 2 2 2 1 1 1 1 1 2 1 1 1 1
13 11 13 14 12 12 13 12 9 9 11 11 10 9 8 7 9 11 11 10 9 9 9 8 7 6 6 5 4 3 3 2 2 2 3 2 2 2 2 2 1 1 1 1 1 1 1 1 1
11 12 14 13 12 14 15 14 9 8 9 10 10 8 7 8 8 9 10 10 9 9 9 9 8 7 6 5 4 3 3 2 2 2 3 2 2 2 1 2 1 1 1 1 1 1 1 1 1
13 11 9 10 10 12 13 12 6 5 5 6 8 8 8 7 7 8 9 10 10 9 9 10 9 8 7 6 4 4 3 3 2 2 3 2 2 2 2 1 1 1 1 1 1 1 1 1 1
13 14 11 10 10 9 9 10 6 5 4 4 5 8 9 8 8 8 8 8 9 9 9 9 9 8 7 6 5 3 3 2 2 2 2 2 2 2 2 2 2 2 1 1 1 0 1 0 1
14 14 14 13 14 12 8 6 3 4 7 7 6 7 8 8 8 8 8 7 7 8 8 8 9 8 7 6 5 4 3 2 2 2 2 1 1 2 2 2 2 2 1 1 1 1 0 0 0
15 13 9 10 11 12 11 9 7 8 7 9 8 8 7 8 8 8 8 7 7 7 7 7 8 7 7 6 5 5 4 4 3 3 2 2 1 1 2 2 2 2 2 2 2 1 1 1 0
14 15 11 9 11 10 9 5 2 5 5 6 6 6 8 8 8 7 7 7 6 6 6 6 7 7 7 6 4 4 4 3 3 3 3 2 2 2 2 2 2 2 2 1 1 1 1 1 1
13 13 12 10 10 10 9 4 2 5 6 4 5 6 7 8 7 7 8 7 6 6 5 5 6 6 7 6 5 4 4 4 3 3 3 2 2 2 2 2 2 2 2 2 1 1 1 1 1
Wind_Direction
228 234 232 247 250 253 315 33 70 60 61 58 51 56 61 53 59 86 109 105 108 113 120 122 121 120 118 113 108 102 95 89 83 78 73 69 69 69 68 67 70 71 74 78 86 93 95 99 104
254 248 241 252 266 288 23 63 71 69 71 73 69 66 71 71 79 98 105 107 112 118 123 120 125 123 121 117 114 108 103 96 88 82 77 72 70 69 68 70 75 77 80 84 89 93 99 103 109
261 262 263 249 249 258 41 65 79 78 72 75 77 66 63 79 89 100 112 117 114 116 120 123 128 126 125 123 120 115 110 103 96 88 82 76 71 68 71 75 80 85 88 90 93 94 99 108 114
255 244 237 252 267 219 105 96 81 88 81 81 85 80 77 71 96 112 123 122 123 128 127 129 133 132 131 130 129 126 119 112 105 97 90 81 74 67 65 78 96 95 92 95 99 100 101 109 119
243 257 257 261 268 142 110 101 83 77 80 73 84 89 91 88 104 118 126 127 131 125 125 133 136 137 138 138 137 135 130 124 116 110 102 89 78 66 61 84 106 104 99 100 105 106 109 111 111
254 256 268 279 271 78 69 94 96 90 90 90 97 100 96 112 118 129 131 135 131 125 126 133 140 142 145 145 142 138 135 133 130 125 119 105 94 81 77 89 101 105 107 107 112 116 121 128 126
258 272 276 274 265 158 89 81 91 102 113 91 97 105 114 125 130 135 135 135 125 122 128 142 147 150 154 152 149 148 146 143 146 148 146 135 129 128 112 110 118 120 122 123 127 135 145 157 159
254 274 280 271 252 187 139 136 119 114 93 98 105 104 128 141 142 139 139 135 128 127 137 144 149 151 158 156 157 161 161 160 167 173 174 169 174 177 168 157 145 144 143 140 144 154 160 162 174
256 258 270 275 270 181 146 176 147 114 101 98 88 101 130 147 147 144 141 136 130 130 138 143 147 149 160 157 154 164 170 176 182 189 192 192 199 180 182 160 152 161 162 159 160 172 174 178 193
243 249 262 280 300 326 163 220 163 166 163 132 114 117 138 152 151 153 149 146 142 141 144 138 138 147 160 149 144 173 173 167 189 169 182 191 215 196 154 156 168 172 175 178 182 187 191 205 201
238 245 258 272 304 321 282 256 206 225 204 139 130 135 148 152 156 160 154 150 147 149 146 135 132 140 139 124 148 161 160 152 181 160 180 180 218 164 147 155 163 177 184 187 175 191 212 206 193
240 250 259 274 292 268 258 259 247 243 225 125 130 144 157 160 164 162 156 148 148 147 145 137 131 130 112 112 145 152 143 146 151 137 151 138 213 349 128 130 152 171 175 173 176 184 186 162 173
240 246 255 259 266 258 253 247 253 225 209 149 146 156 164 171 166 157 152 145 147 147 149 145 138 124 113 100 135 134 118 142 139 134 143 159 169 261 19 111 144 185 165 173 176 170 136 159 190
253 255 254 248 240 243 243 241 236 222 203 185 168 169 171 172 164 154 146 147 149 148 148 144 145 134 134 137 156 119 144 140 116 111 118 145 26 74 28 294 211 186 165 152 152 162 145 152 112
261 260 253 246 237 237 242 243 235 218 213 199 189 181 172 170 163 157 152 154 152 147 143 144 154 140 144 153 182 153 185 144 121 122 130 140 152 108 200 227 222 200 148 145 146 158 177 189 171
254 252 248 241 231 226 234 244 230 210 209 205 201 187 174 171 166 158 154 150 154 152 145 154 161 146 150 153 178 170 164 123 117 126 136 146 149 210 230 207 156 119 139 146 152 181 183 156 125
239 239 243 240 221 216 223 245 233 205 207 205 200 192 183 175 169 156 153 150 154 151 149 155 150 146 153 161 168 184 126 106 115 121 124 137 139 164 207 89 69 82 105 127 192 146 159 165 159
240 240 242 243 217 220 231 236 223 212 217 207 200 189 181 175 167 156 153 152 157 158 153 153 149 143 153 158 156 167 125 127 145 134 132 123 144 171 171 136 100 70 76 75 47 107 149 167 178
259 268 267 261 237 219 236 245 228 221 217 211 196 185 181 173 164 155 155 157 158 155 153 154 156 146 151 151 166 171 163 155 159 150 130 125 134 143 177 132 116 121 112 120 102 110 158 183 153
255 263 269 267 247 237 239 248 242 226 221 212 198 187 180 172 156 156 159 158 158 159 156 157 156 153 158 155 158 165 161 167 162 141 136 143 156 171 191 135 138 147 135 151 158 159 187 220 167
249 255 265 271 263 245 252 248 243 229 214 207 206 198 183 173 162 159 166 164 160 160 161 163 158 156 162 156 158 154 155 170 153 150 148 152 166 159 155 128 151 159 164 170 168 174 215 221 197
249 252 263 269 265 252 247 251 228 218 210 206 200 200 191 172 160 161 167 164 161 158 153 150 152 152 158 156 162 167 164 168 162 156 146 161 169 167 171 152 161 157 161 173 199 154 231 245 236
254 259 257 261 262 262 255 255 242 217 207 202 194 194 187 171 163 166 162 159 157 156 153 149 146 150 152 158 159 166 161 161 149 148 145 168 165 170 158 159 160 168 175 181 207 175 223 248 273
252 260 258 250 251 249 251 255 240 233 208 194 185 181 172 167 161 157 154 154 154 154 155 152 150 150 153 156 156 160 164 154 149 150 153 170 159 156 153 171 173 179 191 197 200 210 218 253 293
236 243 245 238 234 241 241 247 237 223 210 179 167 169 162 157 150 145 151 157 156 154 156 153 151 154 157 159 162 163 169 165 154 160 162 163 157 158 174 176 169 180 192 191 175 197 221 248 286
230 235 242 249 251 256 243 238 232 204 153 142 153 155 151 160 154 147 149 151 151 150 147 150 152 157 162 160 158 157 167 166 150 163 168 154 168 172 159 165 162 162 172 178 145 178 221 194 267
236 235 248 259 265 265 252 225 197 180 147 154 168 156 157 158 151 145 142 142 147 146 145 151 153 154 158 159 156 148 147 156 162 156 152 149 168 157 144 163 153 158 140 134 134 155 190 190 272
240 242 245 251 260 260 256 230 197 189 178 167 163 156 156 148 145 141 136 139 140 137 139 146 142 151 156 161 168 159 162 168 162 145 143 150 147 123 137 149 152 145 142 150 151 154 145 119 31
229 233 238 250 259 263 261 251 185 161 166 171 162 157 149 142 141 138 130 128 125 128 135 142 143 152 153 156 153 141 153 159 153 152 154 156 147 135 143 149 150 152 152 149 151 160 146 122 58
241 240 237 237 245 257 266 255 195 147 151 159 153 139 133 136 134 132 132 132 133 137 136 134 149 155 155 150 145 146 151 154 153 152 157 156 153 154 153 156 160 164 155 155 164 175 142 130 119